Home > Weather > Port Coquitlam > Past weeks

Flag for Canada Weather for the Past 2 Weeks in Port Coquitlam, British Columbia, Canada

Now
42 °F

Quite cool.


Feels Like: 42 °F
Forecast: 43 / 49 °F
Wind: 2 mph from Northeast

Location: P. Meadows Coastal Station

Current Time: Feb 14, 2016 at 7:47:59 AM

Latest Report: Feb 14, 2016 at 7:00 AM


Visibility: N/A

Pressure: 30.10 "Hg

Humidity: 97%

Dew point: 41 °F

Location of Port CoquitlamLocation

Historic Weather in Port Coquitlam — Graph

°F

Port Coquitlam Temperature Yesterday

Maximum temperature yesterday: 47 °F (at 11:00 AM)
Minimum temperature yesterday: 41 °F (at 11:00 PM)
Average temperature yesterday: 44 °F

High & Low Weather Summary for the Past Weeks

 TemperatureHumidityPressure
High59 °F (Feb 9, 4:00 PM)100% (Jan 30, 7:00 AM)30.62 "Hg (Jan 30, 7:00 AM)
Low33 °F (Feb 7, 6:00 AM)55% (Feb 9, 4:00 PM)29.85 "Hg (Jan 30, 6:00 AM)
Average43 °F90%30.19 "Hg
* Reported Jan 30 6:00 AM — Feb 14 6:00 AM, Port Coquitlam, Weather by CustomWeather, © 2016

Note: Actual official high and low records may vary slightly from our data, if they occured in-between our weather recording intervals... More about our weather records

Advertising

Port Coquitlam Weather History for the Previous 24 Hours

 ConditionsComfort  
Time TempWeatherWind HumidityBarometerVisibility
6:00 AM
Sun, Feb 14
42 °FQuite cool.8 mph97%30.10 "HgN/A
5:00 AM42 °FQuite cool.2 mph97%30.10 "HgN/A
4:00 AM41 °FQuite cool.5 mph98%30.10 "HgN/A
3:00 AM41 °FQuite cool.6 mph97%30.11 "HgN/A
2:00 AM41 °FQuite cool.6 mph97%30.11 "HgN/A
1:00 AM41 °FQuite cool.5 mph97%30.11 "HgN/A
12:00 AM41 °FQuite cool.10 mph96%30.09 "HgN/A
11:00 PM
Sat, Feb 13
41 °FQuite cool.7 mph97%30.07 "HgN/A
10:00 PM42 °FQuite cool.8 mph97%30.05 "HgN/A
9:00 PM43 °FQuite cool.8 mph97%30.05 "HgN/A
8:00 PM44 °FQuite cool.6 mph97%30.05 "HgN/A
7:00 PM44 °FQuite cool.5 mph94%30.04 "HgN/A
6:00 PM44 °FQuite cool.3 mph96%30.03 "HgN/A
5:00 PM44 °FQuite cool.7 mph94%30.02 "HgN/A
4:00 PM43 °FQuite cool.7 mph96%30.06 "HgN/A
3:00 PM44 °FQuite cool.7 mph93%30.09 "HgN/A
2:00 PM45 °FCool.8 mph87%30.13 "HgN/A
1:00 PM46 °FCool.1 mph90%30.18 "HgN/A
12:00 PM46 °FCool.6 mph90%30.18 "HgN/A
11:00 AM47 °FCool.1 mph83%30.21 "HgN/A
10:00 AM46 °FCool.3 mph86%30.23 "HgN/A
9:00 AM46 °FCool.2 mph88%30.24 "HgN/A
8:00 AM44 °FQuite cool.2 mph94%30.22 "HgN/A
7:00 AM43 °FQuite cool.3 mph95%30.21 "HgN/A
Weather by CustomWeather, © 2016

See weather overviewHow to use our weather pages